Regional Weather Roundup
Issued by NWS

Home | Current Version | Previous Version | Text Only | Print | Product List | Glossary On
Versions: 1 2 3 4 5 6 7 8 9 10 11 12 13 14 15 16 17 18 19 20 21 22 23 24 25 26 27 28 29 30 31 32 33 34 35 36 37 38 39 40 41 42 43 44 45 46 47 48 49 50
000
ASUS43 KMPX 281301
RWRMN
WEATHER ROUNDUP FOR MINNESOTA
NATIONAL WEATHER SERVICE TWIN CITIES/CHANHASSEN MN
800 AM CDT FRI APR 28 2017


NOTE: "FAIR" INDICATES FEW OR NO CLOUDS BELOW 12,000 FEET WITH NO
SIGNIFICANT WEATHER AND/OR OBSTRUCTIONS TO VISIBILITY. N/A MEANS
CURRENT SKY AND/OR WEATHER CONDITIONS ARE NOT AVAILABLE.

MNZ060>063-068>070-281400-
   Twin Cities Metro

CITY           SKY/WX    TMP DP  RH WIND       PRES   REMARKS
TWIN CITIES    MOSUNNY   38  25  59 N13       29.89R
ST PAUL        PTSUNNY   38  27  64 N8        29.90R
CRYSTAL        SUNNY     36  24  62 N13       29.88R
BLAINE         SUNNY     37  27  65 N9        29.89R
LAKEVILLE      SUNNY     37  30  75 N10       29.86S
EDEN PRAIRIE   PTSUNNY   39  27  62 N12       29.87R
SOUTH ST PAUL  PTSUNNY   37  28  69 N8        29.88R
LAKE ELMO      FAIR      36  27  69 N8        29.89R
$$
MNZ001>005-007-008-013>017-022>024-027-028-281400-
   Northwest Minnesota

CITY           SKY/WX    TMP DP  RH WIND       PRES   REMARKS
BEMIDJI        CLOUDY    28  25  89 NW10      29.87R WCI  18
HALLOCK        SUNNY     34  27  75 N10       29.92R WCI  26
ROSEAU         SUNNY     28  25  86 W9        29.88R WCI  20
WARROAD        CLOUDY    32  27  80 W12       29.87R WCI  23
THIEF RVR FALL SUNNY     32  26  78 NW8       29.92R WCI  25
CROOKSTON      SUNNY     34  30  86 NW7       29.94R WCI  28
FOSSTON        SUNNY     30  25  80 NW10      29.90S WCI  21
DETROIT LAKES  SUNNY     32  30  93 NW13      29.90R WCI  22
MOORHEAD       SUNNY     32  28  86 N10       29.93S WCI  24
PARK RAPIDS    MOSUNNY   32  22  66 NW13      29.86R WCI  22
MAHNOMEN       FAIR      29  27  90 NW8       29.90R WCI  21
$$
MNZ006-009>011-018-025>026-281400-
   North Central Minnesota

CITY           SKY/WX    TMP DP  RH WIND       PRES   REMARKS
BAUDETTE       CLOUDY    31  24  75 W13       29.83R WCI  21
FLAG ISLAND    PTSUNNY   30  21  69 NW17G23   29.83R WCI  18
INTL FALLS     CLOUDY    31  24  75 W13       29.79R WCI  21
WASKISH        CLOUDY    30  27  86 W10       29.86R WCI  21
BIG FORK       CLOUDY    30  25  80 W5        29.82R WCI  25
LONGVILLE      PTSUNNY   30  25  80 NW12G18   29.84S WCI  21
GRAND RAPIDS   CLOUDY    30  23  75 NW13      29.84R WCI  20
CRANE LAKE     CLOUDY    27  25  93 W5        29.78R WCI  21
ORR            DRIZZLE   28  23  80 W9G16     29.76R WCI  20
COOK           CLOUDY    28  25  86 W10       29.79R WCI  19
WALKER         PTSUNNY   28  23  81 NW14      29.85S WCI  17
$$
MNZ012-019>021-037-281400-
   Northeast Minnesota

CITY           SKY/WX    TMP DP  RH WIND       PRES   REMARKS
DULUTH         CLOUDY    31  23  72 NW13G25   29.78R WCI  21
ELY            CLOUDY    27  21  80 W10G17    29.73S WCI  17
HIBBING        CLOUDY    28  23  81 NW13G20   29.80R WCI  17
EVELETH        PTSUNNY   29  22  75 W12G21    29.80R WCI  20
DULUTH HARBOR  CLOUDY    34  27  75 W13G20    29.84R WCI  25
TWO HARBORS    CLOUDY    34  25  69 W10G18    29.77R WCI  26
SILVER BAY     CLOUDY    30  23  74 W7G20     29.75R WCI  23
GRAND MARAIS     N/A     32  27  81 SW14      29.73R WCI  22
G MARAIS ARPRT FLURRIES  25  19  80 W3        29.66S
$$
MNZ029>031-032-039>041-046>048-054>057-064-281400-
   West Central Minnesota

CITY           SKY/WX    TMP DP  RH WIND       PRES   REMARKS
FERGUS FALLS   PTSUNNY   30  28  93 NW7       29.92R WCI  23
WHEATON        SUNNY     34  27  75 NW5       29.96R WCI  30
MORRIS         SUNNY     34  28  80 N9        29.92R WCI  26
ALEXANDRIA     CLOUDY    32  26  78 N12       29.90R WCI  23
ELBOW LAKE     FAIR      32  28  85 N9        29.92R WCI  24
WADENA         CLOUDY    28  27  93 NW5       29.88R WCI  23
GLENWOOD       MOSUNNY   34  28  80 NW10G16   29.90R WCI  26
APPLETON       SUNNY     34  28  80 N13       29.93R WCI  25
BENSON         SUNNY     36  27  69 N9        29.93R
ORTONVILLE     SUNNY     34  27  75 N8        29.93R WCI  27
MADISON        SUNNY     36  30  80 N13       29.92R
WILLMAR        FAIR      34  32  93 NW8       29.91R WCI  27
$$
MNZ033>034-036-042>043-049>051-058-059-281400-
   Central Minnesota

CITY           SKY/WX    TMP DP  RH WIND       PRES   REMARKS
ST CLOUD       SUNNY     33  25  72 NW12      29.90R WCI  24
SAUK CENTRE    PTSUNNY   31  25  77 N10       29.91R WCI  22
PAYNESVILLE    SUNNY     33  26  76 NW10      29.91R WCI  24
AITKIN         CLOUDY    34  21  60 N12G18    29.84R WCI  25
PINE RIVER     SUNNY     30  25  80 NW9G17    29.90R WCI  22
BRAINERD       MOSUNNY   31  24  75 NW13      29.87R WCI  21
STAPLES        CLOUDY    28  25  86 NW7       29.88R WCI  21
LONG PRAIRIE   CLOUDY    30  25  80 W9        29.90R WCI  22
LITTLE FALLS   MOSUNNY   32  25  74 NW8       29.89R WCI  25
LITCHFIELD     SUNNY     37  30  75 N9        29.89R
BUFFALO        MOSUNNY   35  26  70 N12       29.90R WCI  27
MAPLE LAKE     SUNNY     36  28  75 NW10      29.90S
HUTCHINSON     SUNNY     37  31  80 NW13      29.90R
$$
MNZ037-044-045-052-053-281400-
   East Central Minnesota

CITY           SKY/WX    TMP DP  RH WIND       PRES   REMARKS
PRINCETON      SUNNY     36  25  64 NW9       29.90R
MORA           CLOUDY    32  25  74 W7        29.87S WCI  26
CAMBRIDGE      MOSUNNY   34  23  64 W6        29.88R WCI  29
RUSH CITY      PTSUNNY   33  25  72 W7        29.88R WCI  27
MOOSE LAKE     CLOUDY    32  23  69 NW12G22   29.83R WCI  23
HINCKLEY       CLOUDY    32  27  80 NW3       29.86R
CLOQUET        CLOUDY    30  21  69 W15G21    29.81R WCI  19
MCGREGOR       CLOUDY    32  27  80 NW10      29.85R WCI  24
$$
MNZ071>073-080-081-089-090-097-098-281400-
   Southwest Minnesota

CITY           SKY/WX    TMP DP  RH WIND       PRES   REMARKS
MONTEVIDEO     SUNNY     34  28  80 N13       29.92R WCI  25
GRANITE FALLS  SUNNY     35  30  84 NW13G18   29.93R WCI  26
CANBY          SUNNY     34  29  82 N13       29.93R WCI  25
MARSHALL       SUNNY     33  29  85 N10       29.92R WCI  25
REDWOOD FALLS  SUNNY     35  29  78 NW8       29.90R WCI  29
OLIVIA         SUNNY     34  32  93 N9        29.89R WCI  26
PIPESTONE      CLOUDY    34  27  75 NE15      29.85F WCI  24
WINDOM         SUNNY     36  30  80 N12       29.88R
WORTHINGTON    CLOUDY    34  29  82 CALM      29.89R
JACKSON        CLOUDY    32  30  93 CALM      29.88R
TRACY          SUNNY     34  31  88 N10       29.90R WCI  26
SLAYTON        CLOUDY    32  30  92 N17       29.87S WCI  21
$$
MNZ065>067-074>077-082>085-091>093-281400-
   South Central Minnesota

CITY           SKY/WX    TMP DP  RH WIND       PRES   REMARKS
MANKATO        SUNNY     36  30  79 NW8       29.87F
NEW ULM        SUNNY     36  28  75 N9        29.88R
ST JAMES       SUNNY     36  30  80 NW6       29.90R
FAIRMONT       CLOUDY    37  33  85 NW8       29.89R
GLENCOE        SUNNY     37  33  89 N9        29.88R
FARIBAULT      SUNNY     37  30  75 NW9       29.87S
OWATONNA       SUNNY     34  28  80 NW3       29.86S
WASECA         SUNNY     34  32  93 NW6       29.88S WCI  29
ALBERT LEA     SUNNY     34  27  75 CALM      29.87R
$$
MNZ078>079-086>088-094>096-281400-
   Southeast Minnesota

CITY           SKY/WX    TMP DP  RH WIND       PRES   REMARKS
ROCHESTER      SUNNY     34  29  82 W7        29.86R WCI  28
RED WING       SUNNY     39  28  65 N5        29.87R
STANTON        SUNNY     38  31  78 NW6       29.86S
DODGE CENTER   SUNNY     36  28  75 NW9       29.84F
WINONA         SUNNY     36  30  80 NW5       29.88S
AUSTIN         SUNNY     34  28  80 CALM      29.86R
PRESTON        SUNNY     34  28  76 CALM      29.87R
$$
ABBREVIATIONS USED IN REMARKS
   TC - TEMPERATURES IN CELSIUS
  WCI - WIND CHILL INDEX
   HX - HEAT INDEX
  VSB - VISIBILITY
$$



USA.gov is the U.S. government's official web portal to all federal, state and local government web resources and services.